Tracking 32418 objects as of 9-Dec-2025
HD Live streaming from Space Station
objects crossing your sky now

ONEWEB-0101

Track ONEWEB-0101 now!
10-day predictions
ONEWEB-0101 is classified as:


NORAD ID: 48049
Int'l Code: 2021-025H
Perigee: 1,215.6 km
Apogee: 1,218.2 km
Inclination: 87.9 °
Period: 109.6 minutes
Semi major axis: 7587 km
RCS: Unknown
Launch date: March 25, 2021
Source: United States (US)
Launch site: VOSTOCHNY COSMODROME (VOSTO)
Your satellite tracking list
Your tracking list is empty




NASA's NSSDC Master Catalog

Two Line Element Set (TLE):
1 48049U 21025H   25342.77573541 -.00000201  00000-0 -58530-3 0  9999
2 48049  87.8980 358.0803 0001704  86.6569 273.4755 13.13471565228502
Source of the keplerian elements: AFSPC